Weather History for VTST - January, 2014

Change the Weather History Date:

Saturday, January 11, 2014

  Actual Average Record
Temperature  
Mean Temperature 82 °F -  
Max Temperature 89 °F 90 °F - ()
Min Temperature 74 °F 70 °F - ()
Cooling Degree Days 16    
Growing Degree Days 32 (Base 50)    
Moisture  
Dew Point 70 °F    
Average Humidity 63    
Maximum Humidity 94    
Minimum Humidity 41    
Precipitation  
Precipitation 0.00 in 0.05 in - ()
Sea Level Pressure  
Sea Level Pressure 29.87 in    
Wind  
Wind Speed 8 mph ()    
Max Wind Speed 15 mph    
Max Gust Speed -    
Visibility 5.7 miles    
Events      
T = Trace of Precipitation, MM = Missing Value Source: Averaged Metar Reports

Daily Weather History Graph

Daily Weather History Graph

Search for Another Location

Airport or City:

Trip Planner

Search our weather history database for the weather conditions in past years. The results will help you decide how hot, cold, wet, or windy it might be!

Date:

Astronomy

Jan. 11, 2014 Rise Set
Actual Time 6:37 AM ICT 6:20 PM ICT
Civil Twilight 6:15 AM ICT 6:43 PM ICT
Nautical Twilight 5:49 AM ICT 7:09 PM ICT
Astronomical Twilight 5:23 AM ICT 7:35 PM ICT
Moon 2:32 PM ICT (1/11) 2:26 AM ICT (1/11)
Length of Visible Light 12h 28m
Length of Day
11h 43m
Waxing Gibbous, 79% of the Moon is Illuminated
Jan 11
Waxing Gibbous
Jan 16
Full
Jan 24
Last Quarter
Jan 31
New
Feb 7
First Quarter

Hourly Weather History & Observations

Time (ICT) Temp. Heat Index Dew Point Humidity Pressure Visibility Wind Dir Wind Speed Gust Speed Precip Events Conditions
1:00 AM 77 °F - 70 °F 72% 29.89 in 5 mi NNE 4.6 mph - -   Mist
4:00 AM 76 °F - 71 °F 78% 29.88 in 4 mi ENE 5.8 mph - -   Mist
7:00 AM 76 °F - 70 °F 78% 29.91 in 5 mi NE 6.9 mph - -   Mist
7:00 AM 78.8 °F - 77.0 °F 94% 29.89 in 5.6 mi ENE 9.2 mph - N/A   Mostly Cloudy
8:00 AM 78.8 °F - 71.6 °F 78% 29.89 in 5.0 mi NE 6.9 mph - N/A   Mostly Cloudy
9:00 AM 78.8 °F - 71.6 °F 78% 29.92 in 5.0 mi NE 6.9 mph - N/A   Mostly Cloudy
10:00 AM 84 °F - 69 °F 52% 29.94 in 6 mi NE 9.2 mph - -   Haze
10:00 AM 86.0 °F 89.4 °F 68.0 °F 55% 29.89 in 5.6 mi ENE 10.4 mph - N/A   Mostly Cloudy
11:00 AM 87.8 °F 91.4 °F 68.0 °F 52% 29.89 in 5.6 mi NE 10.4 mph - N/A   Mostly Cloudy
12:00 PM 87.8 °F 91.4 °F 68.0 °F 52% 29.86 in 5.6 mi NE 12.7 mph - N/A   Mostly Cloudy
1:00 PM 88 °F - 67 °F 41% 29.87 in 6 mi NE 11.5 mph - -   Scattered Clouds
1:00 PM 87.8 °F 90.4 °F 66.2 °F 49% 29.83 in 6.2 mi NE 13.8 mph - N/A   Mostly Cloudy
2:00 PM 87.8 °F 91.4 °F 68.0 °F 52% 29.80 in 6.2 mi ENE 15.0 mph - N/A   Mostly Cloudy
3:00 PM 87.8 °F 91.4 °F 68.0 °F 52% 29.77 in 6.2 mi NE 13.8 mph - N/A   Mostly Cloudy
4:00 PM 87 °F - 70 °F 47% 29.83 in 6 mi NE 10.4 mph - -   Scattered Clouds
4:00 PM 87.8 °F 91.4 °F 68.0 °F 52% 29.80 in 6.2 mi ENE 12.7 mph - N/A   Mostly Cloudy
5:00 PM 84.2 °F 88.4 °F 69.8 °F 62% 29.80 in 6.2 mi NE 12.7 mph - N/A   Mostly Cloudy
7:00 PM 81 °F - 72 °F 68% 29.88 in 6 mi NNE 5.8 mph - -   Scattered Clouds
10:00 PM 78 °F - 72 °F 78% 29.94 in 6 mi NE 5.8 mph - -   Scattered Clouds